This is the latest recevied weather packets stored in our database for station/object W5DRO-13. If no packets are shown the sender has not sent any weather packets the latest 10 day(s).
| Time | Temp. | Humidity | Pressure | Rain* | Wind** | Luminosity | Snow |
|---|---|---|---|---|---|---|---|
| 1777351221 | 16.67° C | 81% | 1013.3 hPa | 0 mm | - | - | - |
| 1777350919 | 16.67° C | 81% | 1013.5 hPa | 0 mm | - | - | - |
| 1777350615 | 16.67° C | 82% | 1013.5 hPa | 0 mm | - | - | - |
| 1777350312 | 16.67° C | 81% | 1013.6 hPa | 0 mm | - | - | - |
| 1777350009 | 16.67° C | 81% | 1013.7 hPa | 0 mm | - | - | - |
| 1777349706 | 16.67° C | 81% | 1013.6 hPa | 0 mm | - | - | - |
| 1777349403 | 16.67° C | 81% | 1013.4 hPa | 0 mm | - | - | - |
| 1777349102 | 16.67° C | 82% | 1013.5 hPa | 0 mm | - | - | - |
| 1777348798 | 16.67° C | 84% | 1013.4 hPa | 0 mm | - | - | - |
| 1777348496 | 16.67° C | 83% | 1013.2 hPa | 0 mm | - | - | - |
| 1777347892 | 16.67° C | 84% | 1013 hPa | 0 mm | - | - | - |
| 1777347590 | 16.67° C | 83% | 1013.2 hPa | 0 mm | - | - | - |
| 1777347284 | 16.67° C | 83% | 1013.1 hPa | 0 mm | - | - | - |
| 1777346982 | 16.67° C | 81% | 1012.9 hPa | 0 mm | - | - | - |
| 1777346678 | 16.67° C | 81% | 1013.2 hPa | 0 mm | - | - | - |
| 1777346072 | 17.22° C | 80% | 1012.6 hPa | 0 mm | - | - | - |
| 1777345769 | 17.22° C | 79% | 1012.5 hPa | 0 mm | - | - | - |
| 1777345162 | 17.22° C | 79% | 1012.5 hPa | 0 mm | - | - | - |
| 1777344859 | 17.78° C | 78% | 1012.3 hPa | 0 mm | - | - | - |
| 1777344555 | 17.78° C | 77% | 1012.3 hPa | 0 mm | - | - | - |
| 1777343949 | 18.33° C | 75% | 1012.2 hPa | 0 mm | - | - | - |
| 1777343647 | 18.33° C | 74% | 1012 hPa | 0 mm | - | - | - |
| 1777343344 | 18.89° C | 72% | 1011.9 hPa | 0 mm | - | - | - |
| 1777343043 | 19.44° C | 72% | 1011.8 hPa | 0 mm | - | - | - |
| 1777342739 | 19.44° C | 69% | 1011.8 hPa | 0 mm | - | - | - |
* Rain latest hour (hover to see other rain measurements)
** Current wind speed in m/s (hover to see current wind gust speed)